Regional Weather Roundup
Issued by NWS

Home | Current Version | Previous Version | Graphics & Text | Print | Product List | Glossary On
Versions: 1 2 3 4 5 6 7 8 9 10 11 12 13 14 15 16 17 18 19 20 21 22 23 24 25 26 27 28 29 30 31 32 33 34 35 36 37 38 39 40 41 42 43 44 45 46 47 48 49 50
000
ASUS44 KMEG 110500
RWRTN
TENNESSEE HOURLY STATE WEATHER ROUNDUP
NATIONAL WEATHER SERVICE MEMPHIS TN
1100 PM CST WED FEB 10 2016

TNZ002-004-019-021-049-052-054-088>092-110600-
WEST TENNESSEE

CITY           SKY/WX    TMP DP  RH WIND       PRES   REMARKS
MEMPHIS INTL   CLEAR     36  18  48 E9        30.10F WCI  29
JACKSON        CLEAR     27  10  49 SE8       30.14F WCI  19
DYERSBURG      CLEAR     27  12  54 E7        30.15F WCI  19
UNION CITY     MOCLDY    25  16  68 E3        30.14F
PARIS          CLOUDY    23  16  74 E7        30.15F WCI  15
LEXINGTON      CLEAR     25  12  58 CALM      30.15F
$$

TNZ008-025-027-028-033-062-065-066-110600-
NORTH MIDDLE TENNESSEE

CITY           SKY/WX    TMP DP  RH WIND       PRES   REMARKS
NASHVILLE      CLOUDY    26  20  77 CALM      30.20F
CLARKSVILLE    CLOUDY    25  20  81 CALM      30.18F
COOKEVILLE     MOCLDY    25  19  80 CALM      30.17R
CROSSVILLE     CLOUDY    22  17  81 W10       30.11S WCI  11
$$

TNZ061-075-076-078-094-096-097-110600-
SOUTH MIDDLE TENNESSEE

CITY           SKY/WX    TMP DP  RH WIND       PRES   REMARKS
TULLAHOMA      CLOUDY    25  21  86 CALM      30.17F
WINCHESTER     CLOUDY    27  19  74 CALM      30.18F
MCMINNVILLE    CLOUDY    23  19  86 CALM      30.16F
COLUMBIA       CLOUDY    27  25  93 CALM      30.16F
SHELBYVILLE    CLOUDY    27  21  80 CALM      30.19F
$$

TNZ017-018-042-046-047-110600-
NORTHEAST TENNESSEE

CITY           SKY/WX    TMP DP  RH WIND       PRES   REMARKS
TRI CITIES     PTCLDY    20   7  57 W6        30.12R WCI  12
$$

TNZ012-013-036-069-073-074-110600-
CENTRAL EAST TENNESSEE

CITY           SKY/WX    TMP DP  RH WIND       PRES   REMARKS
KNOXVILLE      CLOUDY    25  15  66 SW8       30.16F WCI  16
OAK RIDGE      MOCLDY    26  13  57 CALM      30.17F
GATLINBURG     CLOUDY    25   9  50 W7        30.15F WCI  17
$$

TNZ083-085-099-110600-
SOUTHEAST TENNESSEE

CITY           SKY/WX    TMP DP  RH WIND       PRES   REMARKS
CHATTANOOGA    CLOUDY    30  18  60 CALM      30.20S
$$

SKY/WX REPORTED AS FAIR MEANS FEW OR NO CLOUDS BELOW
12 THOUSAND FEET.




USA.gov is the U.S. government's official web portal to all federal, state and local government web resources and services.